Location: Dieppe
(49.9230°N, 1.0775°E)
Time: 09:32:56
(UTC+02:00)

ISS - Pass Details

Date: 25 May 2018
Orbit: 402 x 406 km, 51.6° (Epoch: 20 June)

Event Time Altitude Azimuth Distance (km) Brightness Sun altitude
Rises 01:59:10 0° 286° (WNW) 2,323 0.2 -19.2°
Reaches altitude 10° 02:01:15 10° 286° (WNW) 1,461 -0.9 -19.1°
Maximum altitude 02:04:32 89° 5° (N) 408 -3.9 -19.1°
Enters shadow 02:05:02 61° 105° (ESE) 462 -3.7 -19.1°
